This demonstration page uses our WeatherBlox Daily Observations layout. Learn more.

Left ArrowRight Arrow

34.74481, -87.66753

Hourly Observations for April 21, 2021

Temp ( °F °C ) Dew Point ( °F °C ) Humidity (%) Winds ( mph kmh ) Pressure ( in mb ) Visibility ( mi km ) Precip ( " mm )
12:53 am 00:53 Partly Cloudy 48 8.9 34 1.1 58 58 NW 8 13 30.06 1018 10 16 0.00 0.00
1:53 am 01:53 Cloudy 45 7.2 34 1.1 66 66 NNW 13 20 30.08 1019 10 16 0.00 0.00
2:01 am 02:01 Cloudy 45 7.2 34 1.1 66 66 NNW 12 19 30.09 1019 10 16 0.00 0.00
2:53 am 02:53 Cloudy with Light Rain 43 6.1 35 1.7 74 74 NNW 14 22 30.10 1019 7 11 0.01 0.25
3:26 am 03:26 Cloudy with Rain 42 5.6 33 0.6 71 71 N 8 13 30.14 1021 7 11 0.01 0.25
3:35 am 03:35 Cloudy with Light Rain 41 5 32 0 70 70 N 13 20 30.14 1021 8 13 0.01 0.25
3:53 am 03:53 Cloudy with Light Rain 41 5 32 0 70 70 N 12 19 30.12 1020 9 14 0.02 0.51
4:15 am 04:15 Cloudy 41 5 32 0 70 70 N 8 13 30.16 1021 10 16 0.00 0.00
4:43 am 04:43 Cloudy 40 4.4 33 0.6 77 77 N 8 13 30.16 1021 10 16 0.00 0.00
4:53 am 04:53 Cloudy 40 4.4 33 0.6 77 77 N 8 13 30.14 1021 10 16 0.00 0.00
5:17 am 05:17 Cloudy 40 4.4 34 1.1 79 79 NNW 6 9 30.17 1022 10 16 0.00 0.00
5:53 am 05:53 Cloudy 40 4.4 32 0 73 73 NNW 6 9 30.16 1021 10 16 0.00 0.00
6:53 am 06:53 Cloudy 40 4.4 31 -0.6 70 70 N 12 19 30.19 1022 10 16 0.00 0.00
7:53 am 07:53 Cloudy 40 4.4 28 -2.2 63 63 N 15 24 30.22 1023 10 16 0.00 0.00
8:20 am 08:20 Partly Cloudy 41 5 28 -2.2 60 60 N 9 15 30.25 1024 10 16 0.00 0.00
8:53 am 08:53 Mostly Cloudy 42 5.6 27 -2.8 55 55 N 10 17 30.23 1024 10 16 0.00 0.00
9:53 am 09:53 Mostly Cloudy 45 7.2 28 -2.2 52 52 NNW 15 24 30.25 1024 10 16 0.00 0.00
10:53 am 10:53 Cloudy 48 8.9 28 -2.2 46 46 NNW 8 13 30.26 1025 10 16 0.00 0.00
11:53 am 11:53 Mostly Cloudy 49 9.4 29 -1.7 46 46 NW 9 15 30.24 1024 10 16 0.00 0.00
12:53 pm 12:53 Mostly Cloudy 50 10 28 -2.2 43 43 NW 9 15 30.23 1024 10 16 0.00 0.00
1:53 pm 13:53 Partly Cloudy 54 12.2 28 -2.2 37 37 N 10 17 30.21 1023 10 16 0.00 0.00
2:53 pm 14:53 Partly Cloudy 56 13.3 29 -1.7 36 36 WNW 13 20 30.19 1023 10 16 0.00 0.00
3:53 pm 15:53 Sunny 56 13.3 27 -2.8 33 33 NW 12 19 30.17 1022 10 16 0.00 0.00
4:53 pm 16:53 Mostly Sunny 57 13.9 25 -3.9 29 29 NW 9 15 30.16 1022 10 16 0.00 0.00
5:53 pm 17:53 Sunny 56 13.3 24 -4.4 29 29 N 8 13 30.16 1021 10 16 0.00 0.00
6:53 pm 18:53 Sunny 54 12.2 23 -5 30 30 N 7 11 30.16 1022 10 16 0.00 0.00
7:53 pm 19:53 Clear 50 10 26 -3.3 39 39 N 3 6 30.18 1022 10 16 0.00 0.00
8:53 pm 20:53 Clear 48 8.9 26 -3.3 42 42 NNW 5 7 30.20 1023 10 16 0.00 0.00
9:53 pm 21:53 Clear 44 6.7 30 -1.1 58 58 Calm 30.21 1023 10 16 0.00 0.00
10:53 pm 22:53 Clear 41 5 30 -1.1 65 65 SSE 3 6 30.21 1023 10 16 0.00 0.00
11:53 pm 23:53 Clear 39 3.9 31 -0.6 73 73 Calm 30.20 1023 10 16 0.00 0.00

Powered by AerisWeather